CURTIS

Last updated on Thu Sep 12 2024 00:02:08 GMT+0000 (Coordinated Universal Time)

1 59507U 98067WG 24255.30596434 .00979591 51436-3 14317-2 0 9998 2 59507 51.6129 229.3231 0002851 40.6535 319.4689 16.04591706 24053
UTC large
Height (km)
Speed (km/s)
/
Latitude / Longitude
Inclination (degrees)
Orbital Period (minutes)
Azimuth
Elevation
Range (km)
Doppler Factor

Next 0 passes for location: London (51.5072 / 0.1276)

Sorry there are no passes over London.